IW2NIA-3 Weather Reports


Display with metric or nautical units.
time (UTC)temp
F
wind
direction
speed
MPH
gust
MPH
rain 1hr
in
rain 24hr
in
rain mn
in
humidity
%
barometer
mb
20260903093325 80 189 0.0 5.0 0.00 0.00 0.00 61 1019.7
20260903091839 80 104 3.0 5.0 0.00 0.00 0.00 58 1019.8
20260903090332 79 215 4.0 6.0 0.00 0.00 0.00 62 1019.8
20260903084827 79 107 0.0 6.0 0.00 0.00 0.00 61 1019.9
20260903083348 79 123 2.0 7.0 0.00 0.00 0.00 59 1019.7
20260903081842 78 105 2.0 6.0 0.00 0.00 0.00 59 1019.9
20260903080342 77 90 1.0 6.0 0.00 0.00 0.00 62 1019.8
20260903074826 77 92 1.0 6.0 0.00 0.00 0.00 64 1019.6
20260903073341 76 67 2.0 7.0 0.00 0.00 0.00 65 1019.5
20260903071840 75 67 4.0 8.0 0.00 0.00 0.00 66 1019.6
20260903070341 74 107 4.0 7.0 0.00 0.00 0.00 68 1019.5
20260903064837 73 66 4.0 6.0 0.00 0.00 0.00 70 1019.5
20260903063332 72 69 5.0 7.0 0.00 0.00 0.00 72 1019.5
20260903061844 71 53 3.0 5.0 0.00 0.00 0.00 74 1019.4
20260903060341 70 76 2.0 4.0 0.00 0.00 0.00 76 1019.3
20260903054835 68 53 2.0 4.0 0.00 0.00 0.00 78 1019.2
20260903053334 67 81 0.0 0.0 0.00 0.00 0.00 80 1019.1
20260903051829 66 88 0.0 1.0 0.00 0.00 0.00 81 1019.0
20260903050348 66 57 0.0 0.0 0.00 0.00 0.00 81 1018.9
20260903044841 66 57 0.0 0.0 0.00 0.00 0.00 81 1018.6
20260903043331 66 57 1.0 3.0 0.00 0.00 0.00 81 1018.4
20260903041844 66 53 0.0 0.0 0.00 0.00 0.00 82 1018.4
20260903040348 67 53 0.0 0.0 0.00 0.00 0.00 81 1018.3
20260903034845 67 53 0.0 3.0 0.00 0.00 0.00 81 1018.2
20260903033342 67 70 2.0 3.0 0.00 0.00 0.00 81 1018.1
20260903031841 67 66 2.0 3.0 0.00 0.00 0.00 82 1018.0
20260903030335 67 59 1.0 3.0 0.00 0.00 0.00 83 1017.9
20260903024834 67 63 0.0 2.0 0.00 0.00 0.00 84 1018.0
20260903023333 67 48 2.0 5.0 0.00 0.00 0.00 84 1018.0
20260903021848 67 56 2.0 4.0 0.00 0.00 0.00 85 1018.1
20260903020343 67 42 0.0 1.0 0.00 0.00 0.00 85 1018.1
20260903014840 67 38 2.0 4.0 0.00 0.00 0.00 85 1018.1
20260903013335 68 205 0.0 0.0 0.00 0.00 0.00 85 1018.1
20260903011848 68 205 0.0 0.0 0.00 0.00 0.00 84 1018.0
20260903010342 68 205 0.0 0.0 0.00 0.00 0.00 83 1018.0
20260903004835 68 204 0.0 0.0 0.00 0.00 0.00 82 1018.1
20260903003333 69 204 0.0 4.0 0.00 0.00 0.00 80 1018.0
20260903001829 71 47 0.0 4.0 0.00 0.00 0.00 78 1018.0
20260903000343 71 47 1.0 4.0 0.00 0.00 0.00 77 1018.0
20260902234837 71 44 2.0 6.0 0.00 0.00 0.00 77 1017.8
20260902233329 72 59 2.0 6.0 0.00 0.00 0.00 77 1017.7
20260902231835 71 42 2.0 6.0 0.00 0.00 0.00 78 1017.7
20260902230348 71 37 2.0 5.0 0.00 0.00 0.00 78 1017.7
20260902224845 71 42 5.0 7.0 0.00 0.00 0.00 79 1017.6
20260902223338 71 30 4.0 6.0 0.00 0.00 0.00 79 1017.6
20260902221830 71 42 3.0 5.0 0.00 0.00 0.00 80 1017.7
20260902220348 71 5 0.0 3.0 0.00 0.00 0.00 80 1017.6
20260902214827 71 5 1.0 3.0 0.00 0.00 0.00 79 1017.5
20260902213330 72 360 2.0 3.0 0.00 0.00 0.00 79 1017.6
20260902211846 72 355 2.0 3.0 0.00 0.00 0.00 77 1017.5
20260902210342 73 71 1.0 4.0 0.00 0.00 0.00 75 1017.3
20260902204832 73 80 4.0 6.0 0.00 0.00 0.00 76 1017.3
20260902203330 73 42 2.0 3.0 0.00 0.00 0.00 77 1017.2
20260902201848 73 28 2.0 3.0 0.00 0.00 0.00 78 1017.2
20260902200344 74 13 0.0 3.0 0.00 0.00 0.00 77 1017.1
20260902194841 74 347 0.0 0.0 0.00 0.00 0.00 76 1017.0
20260902193331 75 347 0.0 0.0 0.00 0.00 0.00 75 1017.0
20260902191844 76 347 0.0 0.0 0.00 0.00 0.00 72 1016.9
20260902190342 77 347 0.0 0.0 0.00 0.00 0.00 70 1016.7
20260902184838 78 347 0.0 3.0 0.00 0.00 0.00 69 1016.6
20260902183337 79 346 2.0 3.0 0.00 0.00 0.00 66 1016.5
20260902181832 79 346 1.0 4.0 0.00 0.00 0.00 64 1016.4
20260902180331 80 348 2.0 4.0 0.00 0.00 0.00 63 1016.3
20260902174848 82 355 2.0 3.0 0.00 0.00 0.00 59 1016.1
20260902173331 82 355 2.0 4.0 0.00 0.00 0.00 58 1016.1
20260902171848 83 330 2.0 5.0 0.00 0.00 0.00 57 1016.0
20260902170338 84 315 2.0 4.0 0.00 0.00 0.00 54 1016.0
20260902164835 85 292 1.0 3.0 0.00 0.00 0.00 52 1016.1
20260902163340 86 265 2.0 5.0 0.00 0.00 0.00 50 1016.0
20260902161836 87 271 2.0 5.0 0.00 0.00 0.00 50 1016.1
20260902160331 86 313 3.0 5.0 0.00 0.00 0.00 51 1016.1
20260902154835 86 277 3.0 5.0 0.00 0.00 0.00 51 1016.2
20260902153327 86 310 3.0 5.0 0.00 0.00 0.00 52 1016.4
20260902151845 86 340 4.0 6.0 0.00 0.00 0.00 48 1016.4
20260902150341 86 284 1.0 5.0 0.00 0.00 0.00 48 1016.6
20260902144830 86 246 3.0 5.0 0.00 0.00 0.00 53 1016.7
20260902143345 86 289 0.0 5.0 0.00 0.00 0.00 49 1016.8
20260902141836 86 277 4.0 6.0 0.00 0.00 0.00 53 1016.8
20260902140349 86 200 3.0 7.0 0.00 0.00 0.00 54 1016.9
20260902134847 86 223 1.0 5.0 0.00 0.00 0.00 54 1017.1
20260902133338 85 225 2.0 6.0 0.00 0.00 0.00 58 1017.0
20260902131830 85 336 3.0 6.0 0.00 0.00 0.00 56 1017.3
20260902130347 85 217 4.0 6.0 0.00 0.00 0.00 54 1017.5
20260902124843 84 239 1.0 7.0 0.00 0.00 0.00 59 1017.6
20260902123342 84 259 4.0 7.0 0.00 0.00 0.00 58 1017.8
20260902121830 84 300 1.0 6.0 0.00 0.00 0.00 60 1018.0
20260902120334 84 348 4.0 7.0 0.00 0.00 0.00 60 1018.1
20260902114849 83 161 2.0 7.0 0.00 0.00 0.00 60 1018.3
20260902113346 83 273 2.0 4.0 0.00 0.00 0.00 64 1018.4
20260902111845 82 203 2.0 7.0 0.00 0.00 0.00 63 1018.5
20260902110340 82 259 0.0 6.0 0.00 0.00 0.00 62 1018.7
20260902104831 81 290 1.0 6.0 0.00 0.00 0.00 63 1018.8
20260902103328 81 249 4.0 7.0 0.00 0.00 0.00 62 1018.9
20260902101836 81 204 4.0 6.0 0.00 0.00 0.00 66 1019.1
20260902100349 80 128 3.0 6.0 0.00 0.00 0.00 64 1019.1
20260902094841 80 58 2.0 4.0 0.00 0.00 0.00 66 1019.2